Location: Albany
(35.0000°S, 118.0000°E)
Time: 10:27:48
(UTC-04:00)

Amateur Radio Satellites - All Passes

Search period start: 01 April 2015 09:57
Search period end: 02 April 2015 09:57
Location: Albany, 35.0000°S, 118.0000°E

Satellite Date Start Highest point End Downlink Frequencies (MHz)
Time Altitude Azimuth
HUMSAT D 01 Apr 10:02:12 10:05:50 28° 85° (E) 10:09:28 437.325/437.525
POLYITAN 1 01 Apr 10:02:24 10:06:29 42° 106° (ESE) 10:10:40 437.675
SEEDS 01 Apr 10:05:06 10:08:05 18° 250° (WSW) 10:10:55 437.485
PHONESAT 2.4 01 Apr 10:09:40 10:13:04 37° 329° (NNW) 10:16:27 2401.200-2431.200
UKube-1 01 Apr 10:12:13 10:16:34 54° 80° (E) 10:20:52 .
50 SAT 01 Apr 10:12:40 10:15:50 23° 85° (E) 10:19:02 437.505
COMPASS 1 01 Apr 10:23:20 10:25:39 14° 249° (WSW) 10:27:46 437.405
DX 1 01 Apr 10:26:33 10:31:03 87° 71° (ENE) 10:35:28 434.975-435.025
ESTCUBE 1 01 Apr 10:30:02 10:33:14 19° 87° (E) 10:36:35 437.505/2401.250
DUCHIFAT 1 01 Apr 10:37:26 10:41:44 75° 282° (WNW) 10:46:06 145.980
QB50P1 01 Apr 10:37:27 10:41:45 73° 281° (WNW) 10:46:08 145.935-145.965
UNISAT 6 01 Apr 10:37:32 10:41:57 38° 278° (W) 10:46:21 437.425
DOVE 4 01 Apr 10:40:48 10:42:13 11° 244° (WSW) 10:43:18 437.250
Oscar 11 01 Apr 10:41:26 10:44:54 23° 251° (WSW) 10:48:14 145.826/435.025
TIGRISAT 01 Apr 10:46:30 10:50:44 31° 276° (W) 10:54:56 435.000
AIST 2 01 Apr 10:47:53 10:50:51 19° 231° (SW) 10:53:45 435.215
DELFI C3 01 Apr 10:48:10 10:51:23 22° 251° (WSW) 10:54:30 145.870
HO-68 01 Apr 10:48:42 10:53:22 18° 240° (WSW) 10:57:41 435.675
QB50P2 01 Apr 10:53:39 10:57:48 45° 279° (W) 11:02:00 145.880/145.840
FUNcube-1 01 Apr 10:58:12 11:01:59 28° 251° (WSW) 11:05:36 145.935
BUGSAT 1 01 Apr 11:03:50 11:07:52 48° 279° (W) 11:12:01 437.445
SPROUT 01 Apr 11:09:46 11:10:27 10° 91° (E) 11:11:26 437.525
CUBEBUG 1 01 Apr 11:10:00 11:14:23 49° 81° (E) 11:18:44 437.445
UWE-3 01 Apr 11:11:43 11:14:37 17° 248° (WSW) 11:17:18 435.000/436.395/437.385
ZACube-1 01 Apr 11:12:50 11:16:03 20° 249° (WSW) 11:19:04 437.345
VELOX 1 01 Apr 11:19:21 11:23:50 57° 255° (WSW) 11:28:15 145.980
ANTELSAT 01 Apr 11:20:35 11:23:06 14° 271° (W) 11:25:22 437.575/2403.000
POPSAT HIP 1 01 Apr 11:22:37 11:26:01 22° 274° (W) 11:29:22 437.405
CUBEBUG 2 01 Apr 11:25:22 11:26:15 10° 245° (WSW) 11:26:51 437.445
AISAT 01 Apr 11:25:32 11:29:56 46° 254° (WSW) 11:34:14 437.250
NANOSAT C BR1 01 Apr 11:32:27 11:35:22 17° 272° (W) 11:38:09 145.865
HUMSAT D 01 Apr 11:38:21 11:41:27 19° 250° (WSW) 11:44:23 437.325/437.525
POLYITAN 1 01 Apr 11:40:18 11:42:40 14° 271° (W) 11:44:51 437.675
YUBILEINY 01 Apr 11:45:37 11:52:10 26° 95° (E) 11:59:04 435.215
50 SAT 01 Apr 11:47:34 11:50:39 21° 251° (WSW) 11:53:37 437.505
UKube-1 01 Apr 11:50:28 11:52:17 12° 246° (WSW) 11:53:52 .
O/OREOS (USA 219) 01 Apr 12:04:16 12:07:22 18° 121° (ESE) 12:10:37 437.305
JUGNU 01 Apr 12:05:11 12:08:17 15° 9° (N) 12:11:25 437.505
ESTCUBE 1 01 Apr 12:06:03 12:10:14 34° 252° (WSW) 12:14:20 437.505/2401.250
TISAT 1 01 Apr 12:20:16 12:24:37 64° 79° (ENE) 12:28:52 437.305
ITAMSAT 1 01 Apr 12:25:08 12:27:31 14° 115° (ESE) 12:30:13 435.822/435.867
PCSat 01 Apr 12:34:47 12:39:14 28° 71° (ENE) 12:43:50 145.827
SPROUT 01 Apr 12:42:38 12:46:58 55° 255° (WSW) 12:51:13 437.525
CUBEBUG 1 01 Apr 12:47:58 12:50:22 14° 247° (WSW) 12:52:32 437.445
Oscar 19 01 Apr 12:48:33 12:53:46 78° 103° (ESE) 12:59:04 437.125/150
SWISSCUBE 01 Apr 13:00:08 13:04:12 27° 84° (E) 13:08:19 437.505
BEESAT 01 Apr 13:02:33 13:06:34 26° 85° (E) 13:10:38 436.000
SRMSAT 01 Apr 13:11:09 13:13:35 13° 12° (NNE) 13:16:07 437.500
Gurwin Techsat 1B 01 Apr 13:30:12 13:35:17 48° 107° (ESE) 13:40:28 435.225
YUBILEINY 01 Apr 13:39:52 13:48:28 59° 259° (W) 13:57:05 435.215
O/OREOS (USA 219) 01 Apr 13:42:43 13:46:59 38° 285° (WNW) 13:51:12 437.305
AO-7 01 Apr 13:45:00 13:50:35 21° 122° (ESE) 13:56:33 29.400- 29.500
ITUPSAT 1 01 Apr 13:50:54 13:55:47 87° 77° (ENE) 14:00:38 437.325
JUGNU 01 Apr 13:52:45 13:56:35 18° 360° (N) 14:00:24 437.505
KKS-1 01 Apr 13:55:28 13:58:13 16° 88° (E) 14:01:09 437.445
ITAMSAT 1 01 Apr 14:01:21 14:06:31 66° 281° (WNW) 14:11:46 435.822/435.867
PCSat 01 Apr 14:17:35 14:22:32 35° 236° (WSW) 14:27:29 145.827
STARS 01 Apr 14:19:22 14:22:27 19° 87° (E) 14:25:40 437.465
SWISSCUBE 01 Apr 14:37:53 14:42:00 27° 250° (WSW) 14:45:59 437.505
BEESAT 01 Apr 14:40:15 14:44:23 28° 250° (WSW) 14:48:23 436.000
AIST 1 01 Apr 14:51:55 14:56:19 60° 274° (W) 15:00:40
SRMSAT 01 Apr 14:58:10 15:02:03 18° 3° (N) 15:05:57 437.500
HORYU 2 01 Apr 15:02:40 15:07:13 84° 283° (WNW) 15:11:47 437.375
JAS-2 01 Apr 15:02:59 15:08:28 40° 107° (ESE) 15:13:35 435.910
Gurwin Techsat 1B 01 Apr 15:11:56 15:15:35 18° 272° (W) 15:19:02 435.225
KKS-1 01 Apr 15:30:49 15:35:04 39° 253° (WSW) 15:39:14 437.445
AO-7 01 Apr 15:34:11 15:42:34 81° 286° (WNW) 15:51:03 29.400- 29.500
JUGNU 01 Apr 15:41:55 15:44:53 14° 350° (N) 15:47:48 437.505
MOZHAYETS 4 01 Apr 15:54:14 15:57:21 18° 88° (E) 16:00:38
STARS 01 Apr 15:54:58 15:59:01 33° 252° (WSW) 16:02:58 437.465
SO-50 01 Apr 16:25:54 16:29:12 20° 68° (ENE) 16:32:36 436.795
SRMSAT 01 Apr 16:46:56 16:50:32 16° 353° (N) 16:54:06 437.500
CUTE-I 01 Apr 16:48:31 16:52:49 26° 111° (ESE) 16:57:17 437.470
JAS-2 01 Apr 16:48:56 16:53:43 23° 275° (W) 16:58:02 435.910
RS-15 01 Apr 16:49:11 16:59:49 39° 72° (ENE) 17:10:49 29.354- 29.394
Cubesat XI-IV 01 Apr 16:49:41 16:54:03 27° 111° (ESE) 16:58:34 437.490
AUBIESAT-1 01 Apr 16:55:28 16:57:05 13° 81° (E) 16:58:54 437.475
M-CUBED/EXP-1 PRIME 01 Apr 17:21:43 17:24:52 35° 77° (ENE) 17:28:08 437.505
MOZHAYETS 4 01 Apr 17:30:29 17:34:45 36° 253° (WSW) 17:38:55
AO-7 01 Apr 17:33:04 17:36:45 13° 268° (W) 17:39:40 29.400- 29.500
AIST 2 01 Apr 17:35:38 17:36:04 10° 135° (SE) 17:36:43 435.215
BEESAT 2 01 Apr 17:38:56 17:42:27 29° 126° (SE) 17:46:00 435.950
CUBESAT XI-V 01 Apr 17:50:22 17:54:16 25° 86° (E) 17:58:12 437.345
GONETS M04 01 Apr 17:58:18 18:06:21 43° 91° (E) 18:14:35
SO-50 01 Apr 18:05:08 18:09:31 38° 235° (SW) 18:13:48 436.795
BEESAT 3 01 Apr 18:11:28 18:15:27 86° 124° (SE) 18:19:27 437.485
STRAND 1 01 Apr 18:23:38 18:28:07 29° 84° (E) 18:32:38 437.568
BRITE-PL 01 Apr 18:25:47 18:28:13 14° 116° (ESE) 18:31:01 437.365/2234.400
CUTE-I 01 Apr 18:27:55 18:32:45 34° 277° (W) 18:37:37 437.470
AUBIESAT-1 01 Apr 18:29:08 18:32:03 26° 249° (WSW) 18:35:00 437.475
Cubesat XI-IV 01 Apr 18:29:14 18:34:02 33° 277° (W) 18:38:51 437.490
PRISM 01 Apr 18:46:03 18:50:18 82° 79° (ENE) 18:54:32 437.425
DANDE 01 Apr 18:47:35 18:53:28 24° 95° (E) 19:00:09 436.750
GOMX 1 01 Apr 18:53:46 18:57:02 17° 114° (ESE) 19:00:37 467.674
CUTE 1.7 + AOD 2 01 Apr 18:57:20 18:57:31 10° 113° (ESE) 18:57:59 437.475
M-CUBED/EXP-1 PRIME 01 Apr 18:58:49 18:59:35 10° 245° (WSW) 19:00:09 437.505
RS-15 01 Apr 18:59:52 19:12:01 60° 234° (SW) 19:24:00 29.354- 29.394
AIST 2 01 Apr 19:11:05 19:15:12 76° 297° (WNW) 19:19:21 435.215
BEESAT 2 01 Apr 19:17:30 19:20:25 19° 292° (WNW) 19:23:13 435.950
CUSAT 1 01 Apr 19:17:33 19:25:02 50° 88° (E) 19:33:08 437.405
SEEDS 01 Apr 19:18:52 19:21:20 16° 111° (ESE) 19:23:59 437.485
HO-68 01 Apr 19:24:02 19:30:39 43° 112° (ESE) 19:37:24 435.675
CUBESAT XI-V 01 Apr 19:27:35 19:31:40 28° 251° (WSW) 19:35:40 437.345
COMPASS 1 01 Apr 19:35:15 19:38:15 19° 110° (ESE) 19:41:22 437.405
ISS 01 Apr 19:39:55 19:42:15 19° 50° (NE) 19:44:40 145.825
GONETS M04 01 Apr 19:55:13 20:03:19 37° 253° (WSW) 20:11:15
Oscar 11 01 Apr 19:58:02 20:00:23 15° 112° (ESE) 20:02:55 145.826/435.025
DELFI C3 01 Apr 20:00:37 20:00:58 10° 113° (ESE) 20:01:34 145.870
BRITE-PL 01 Apr 20:00:55 20:06:02 71° 280° (W) 20:11:37 437.365/2234.400
DOVE 4 01 Apr 20:01:22 20:06:22 54° 106° (ESE) 20:11:37 437.250
STRAND 1 01 Apr 20:02:47 20:07:16 29° 250° (WSW) 20:11:37 437.568
CANX-2 01 Apr 20:15:16 20:19:36 82° 279° (W) 20:23:56 2200.000
FUNcube-1 01 Apr 20:16:16 20:18:14 13° 113° (ESE) 20:20:27 145.935
DANDE 01 Apr 20:28:17 20:36:07 68° 258° (WSW) 20:44:49 436.750
UWE-3 01 Apr 20:28:20 20:31:58 23° 110° (ESE) 20:35:44 435.000/436.395/437.385
CUTE 1.7 + AOD 2 01 Apr 20:28:43 20:32:59 62° 280° (W) 20:37:17 437.475
ZACube-1 01 Apr 20:29:18 20:32:26 19° 111° (ESE) 20:35:44 437.345
GOMX 1 01 Apr 20:29:36 20:34:39 55° 279° (W) 20:40:03 467.674
AAUSAT CUBESAT 2 01 Apr 20:39:15 20:43:29 82° 282° (WNW) 20:47:44 437.432
CUBEBUG 2 01 Apr 20:40:09 20:44:33 38° 107° (ESE) 20:49:02 437.445
CINEMA 3 01 Apr 20:51:41 20:56:42 87° 283° (WNW) 21:01:52 145.822/145.860
HUMSAT D 01 Apr 20:52:01 20:54:27 15° 111° (ESE) 20:57:04 437.325/437.525
SEEDS 01 Apr 20:52:52 20:56:52 38° 277° (W) 21:00:52 437.485
CUSAT 1 01 Apr 21:00:53 21:08:08 35° 251° (WSW) 21:15:35 437.405
UKube-1 01 Apr 21:04:10 21:07:58 31° 109° (ESE) 21:11:52 .
COMPASS 1 01 Apr 21:10:03 21:13:46 29° 276° (W) 21:17:29 437.405
HO-68 01 Apr 21:12:08 21:18:30 32° 276° (W) 21:24:45 435.675
ISS 01 Apr 21:15:28 21:18:30 33° 216° (SW) 21:21:33 145.825
DX 1 01 Apr 21:18:50 21:23:02 48° 106° (ESE) 21:27:21 434.975-435.025
RS-15 01 Apr 21:19:37 21:28:01 20° 206° (SSW) 21:35:51 29.354- 29.394
PCSat 01 Apr 21:26:56 21:29:20 13° 134° (SE) 21:31:59 145.827
ESTCUBE 1 01 Apr 21:28:07 21:29:57 13° 113° (ESE) 21:32:02 437.505/2401.250
DELFI C3 01 Apr 21:31:43 21:35:42 54° 280° (W) 21:39:44 145.870
Oscar 11 01 Apr 21:32:04 21:36:14 43° 278° (W) 21:40:26 145.826/435.025
ANTELSAT 01 Apr 21:39:03 21:40:54 13° 90° (E) 21:42:58 437.575/2403.000
DOVE 4 01 Apr 21:41:21 21:44:33 16° 269° (W) 21:47:33 437.250
FUNcube-1 01 Apr 21:49:34 21:54:08 56° 280° (W) 21:58:43 145.935
CUBEBUG 1 01 Apr 22:03:22 22:07:02 27° 109° (ESE) 22:10:51 437.445
UWE-3 01 Apr 22:04:07 22:08:21 31° 276° (W) 22:12:33 435.000/436.395/437.385
ZACube-1 01 Apr 22:04:13 22:08:33 38° 277° (W) 22:12:52 437.345
VELOX 1 01 Apr 22:13:25 22:17:53 85° 104° (ESE) 22:22:25 145.980
DANDE 01 Apr 22:17:23 22:21:21 13° 238° (WSW) 22:24:43 436.750
CUBEBUG 2 01 Apr 22:17:52 22:21:23 19° 272° (W) 22:24:46 437.445
AISAT 01 Apr 22:19:43 22:24:12 79° 282° (WNW) 22:28:46 437.250
HUMSAT D 01 Apr 22:25:45 22:29:54 41° 278° (W) 22:34:04 437.325/437.525
DUCHIFAT 1 01 Apr 22:26:28 22:29:51 23° 86° (E) 22:33:17 145.980
QB50P1 01 Apr 22:26:46 22:30:13 23° 85° (E) 22:33:43 145.935-145.965
50 SAT 01 Apr 22:29:07 22:33:09 57° 280° (W) 22:37:14 437.505
UNISAT 6 01 Apr 22:32:54 22:37:17 58° 80° (E) 22:41:31 437.425
UKube-1 01 Apr 22:40:57 22:44:11 19° 274° (W) 22:47:19 .
TIGRISAT 01 Apr 22:41:21 22:45:46 72° 80° (E) 22:50:03 435.000
QB50P2 01 Apr 22:42:31 22:46:32 37° 82° (E) 22:50:31 145.880/145.840
BUGSAT 1 01 Apr 22:49:43 22:53:33 31° 84° (E) 22:57:22 437.445
DX 1 01 Apr 22:57:42 22:59:38 12° 271° (W) 23:01:21 434.975-435.025
ESTCUBE 1 01 Apr 23:01:59 23:06:25 54° 280° (W) 23:10:53 437.505/2401.250
PCSat 01 Apr 23:08:06 23:13:35 87° 301° (WNW) 23:19:01 145.827
TISAT 1 01 Apr 23:09:31 23:13:16 31° 108° (ESE) 23:17:08 437.305
POPSAT HIP 1 01 Apr 23:10:09 23:14:32 80° 80° (E) 23:18:50 437.405
ANTELSAT 01 Apr 23:13:49 23:18:03 45° 254° (WSW) 23:22:09 437.575/2403.000
NANOSAT C BR1 01 Apr 23:19:10 23:23:32 80° 257° (WSW) 23:27:48 145.865
POLYITAN 1 01 Apr 23:26:56 23:31:16 63° 256° (WSW) 23:35:29 437.675
SPROUT 01 Apr 23:33:09 23:37:29 73° 103° (ESE) 23:41:53 437.525
CUBEBUG 1 01 Apr 23:39:55 23:43:25 22° 274° (W) 23:46:50 437.445
RS-15 01 Apr 23:41:56 23:47:24 14° 170° (S) 23:52:59 29.354- 29.394
YUBILEINY 01 Apr 23:53:57 00:02:37 61° 101° (E) 00:11:17 435.215
DUCHIFAT 1 02 Apr 00:02:01 00:05:39 26° 251° (WSW) 00:09:09 145.980
QB50P1 02 Apr 00:02:27 00:06:03 25° 251° (WSW) 00:09:31 145.935-145.965
SWISSCUBE 02 Apr 00:04:03 00:07:39 22° 111° (ESE) 00:11:24 437.505
BEESAT 02 Apr 00:06:23 00:09:56 22° 111° (ESE) 00:13:39 436.000
UNISAT 6 02 Apr 00:12:16 00:13:35 11° 246° (WSW) 00:14:38 437.425
QB50P2 02 Apr 00:19:22 00:22:10 16° 249° (WSW) 00:24:47 145.880/145.840
BUGSAT 1 02 Apr 00:25:39 00:28:50 19° 250° (WSW) 00:31:52 437.445
TISAT 1 02 Apr 00:46:05 00:49:09 18° 273° (W) 00:52:07 437.305
KKS-1 02 Apr 00:52:34 00:53:32 11° 114° (ESE) 00:54:48 437.445
ITUPSAT 1 02 Apr 00:54:21 00:59:06 69° 105° (ESE) 01:03:56 437.325
Oscar 19 02 Apr 01:03:56 01:08:40 36° 83° (E) 01:13:24 437.125/150
STARS 02 Apr 01:14:46 01:16:25 12° 114° (ESE) 01:18:19 437.465
SWISSCUBE 02 Apr 01:41:01 01:45:20 33° 277° (W) 01:49:39 437.505
BEESAT 02 Apr 01:43:15 01:47:36 34° 277° (W) 01:51:57 436.000
VERMONT LUNAR 02 Apr 01:44:18 01:46:31 16° 36° (NE) 01:48:50 437.305
Gurwin Techsat 1B 02 Apr 01:50:19 01:54:39 25° 86° (E) 01:59:05 435.225
YUBILEINY 02 Apr 01:52:01 01:58:54 25° 265° (W) 02:05:23 435.215
RS-15 02 Apr 01:54:41 02:05:06 36° 137° (SE) 02:15:15 29.354- 29.394
ISS 02 Apr 02:11:08 02:11:31 10° 158° (SSE) 02:11:58 145.825
O/OREOS (USA 219) 02 Apr 02:12:29 02:16:33 35° 76° (ENE) 02:20:41 437.305
ITAMSAT 1 02 Apr 02:17:35 02:22:48 59° 80° (E) 02:28:00 435.822/435.867
KKS-1 02 Apr 02:25:11 02:29:41 65° 280° (W) 02:34:14 437.445
SO-50 02 Apr 02:39:24 02:43:47 75° 120° (ESE) 02:48:10 436.795
Oscar 19 02 Apr 02:43:43 02:47:51 24° 248° (WSW) 02:51:49 437.125/150
STARS 02 Apr 02:48:02 02:52:26 56° 280° (W) 02:56:54 437.465
MOZHAYETS 4 02 Apr 02:54:31 02:56:23 13° 113° (ESE) 02:58:30
PHONESAT 2.4 02 Apr 02:56:45 02:59:47 25° 34° (NNE) 03:02:52 2401.200-2431.200
HORYU 2 02 Apr 02:58:06 03:01:41 24° 85° (E) 03:05:20 437.375
AIST 1 02 Apr 03:17:43 03:22:00 86° 264° (W) 03:26:22
VERMONT LUNAR 02 Apr 03:20:28 03:23:55 88° 203° (SSW) 03:27:25 437.305
Gurwin Techsat 1B 02 Apr 03:29:50 03:34:42 35° 251° (WSW) 03:39:27 435.225
AO-7 02 Apr 03:39:55 03:47:47 43° 81° (E) 03:55:39 29.400- 29.500
AUBIESAT-1 02 Apr 03:41:21 03:43:12 13° 114° (ESE) 03:45:12 437.475
ISS 02 Apr 03:45:15 03:48:33 58° 140° (SE) 03:51:49 145.825
O/OREOS (USA 219) 02 Apr 03:52:52 03:56:07 19° 239° (WSW) 03:59:16 437.305
ITAMSAT 1 02 Apr 03:58:43 04:01:52 16° 245° (WSW) 04:04:45 435.822/435.867
JAS-2 02 Apr 03:58:49 04:04:09 47° 80° (E) 04:10:05 435.910
RS-15 02 Apr 04:06:59 04:18:28 67° 294° (WNW) 04:29:17 29.354- 29.394
M-CUBED/EXP-1 PRIME 02 Apr 04:07:30 04:11:09 32° 111° (ESE) 04:14:36 437.505
GONETS M04 02 Apr 04:14:12 04:19:09 17° 116° (ESE) 04:24:37
MOZHAYETS 4 02 Apr 04:28:39 04:33:11 56° 280° (W) 04:37:45
PHONESAT 2.4 02 Apr 04:34:20 04:37:57 66° 200° (SSW) 04:41:37 2401.200-2431.200
HORYU 2 02 Apr 04:34:32 04:38:19 26° 251° (WSW) 04:41:58 437.375
CUBESAT XI-V 02 Apr 04:51:31 04:54:27 17° 112° (ESE) 04:57:36 437.345
VERMONT LUNAR 02 Apr 04:58:39 05:01:52 34° 187° (S) 05:05:06 437.305
CUTE-I 02 Apr 05:10:20 05:12:35 13° 91° (E) 05:15:11 437.470
Cubesat XI-IV 02 Apr 05:11:32 05:14:02 14° 90° (E) 05:16:51 437.490
AUBIESAT-1 02 Apr 05:14:02 05:17:52 38° 284° (WNW) 05:21:27 437.475
ISS 02 Apr 05:23:48 05:24:37 11° 307° (NW) 05:25:16 145.825
AO-7 02 Apr 05:32:51 05:40:31 39° 244° (WSW) 05:47:58 29.400- 29.500
PRISM 02 Apr 05:33:18 05:37:05 37° 107° (ESE) 05:40:57 437.425
STRAND 1 02 Apr 05:36:25 05:40:49 30° 110° (ESE) 05:45:21 437.568
DANDE 02 Apr 05:37:42 05:39:18 11° 124° (SE) 05:41:13 436.750
M-CUBED/EXP-1 PRIME 02 Apr 05:43:32 05:46:07 16° 279° (W) 05:48:27 437.505
JAS-2 02 Apr 05:44:59 05:49:06 21° 249° (WSW) 05:53:17 435.910
CUSAT 1 02 Apr 06:04:16 06:08:49 23° 115° (ESE) 06:12:38 437.405
GONETS M04 02 Apr 06:08:32 06:17:21 86° 275° (W) 06:26:03
PHONESAT 2.4 02 Apr 06:13:18 06:16:40 33° 183° (S) 06:20:02 2401.200-2431.200
CUBESAT XI-V 02 Apr 06:27:15 06:31:37 40° 278° (W) 06:36:01 437.345
VERMONT LUNAR 02 Apr 06:36:45 06:40:01 37° 170° (S) 06:43:18 437.305
CUTE-I 02 Apr 06:47:49 06:53:14 66° 254° (WSW) 06:58:35 437.470
Cubesat XI-IV 02 Apr 06:49:16 06:54:40 63° 254° (WSW) 07:00:00 437.490
PRISM 02 Apr 07:10:26 07:12:46 14° 272° (W) 07:14:56 437.425
STRAND 1 02 Apr 07:15:40 07:20:01 27° 275° (W) 07:24:19 437.568
DANDE 02 Apr 07:17:40 07:24:19 86° 281° (W) 07:29:06 436.750
BEESAT 2 02 Apr 07:32:25 07:33:48 12° 70° (ENE) 07:35:24 435.950
CUSAT 1 02 Apr 07:46:42 07:51:53 32° 268° (W) 07:55:49 437.405
PHONESAT 2.4 02 Apr 07:51:54 07:55:28 46° 166° (SSE) 07:58:59 2401.200-2431.200
BEESAT 3 02 Apr 08:02:10 08:05:43 33° 66° (ENE) 08:09:19 437.485
CANX-2 02 Apr 08:04:49 08:08:06 22° 86° (E) 08:11:26 2200.000
DOVE 4 02 Apr 08:05:36 08:09:06 20° 89° (E) 08:12:38 437.250
GONETS M04 02 Apr 08:08:56 08:13:06 14° 260° (W) 08:16:33
BRITE-PL 02 Apr 08:09:39 08:15:10 54° 82° (E) 08:20:18 437.365/2234.400
VERMONT LUNAR 02 Apr 08:14:25 08:17:52 68° 333° (NNW) 08:21:18 437.305
CUTE 1.7 + AOD 2 02 Apr 08:17:49 08:21:28 28° 84° (E) 08:25:09 437.475
AAUSAT CUBESAT 2 02 Apr 08:26:40 08:29:43 20° 86° (E) 08:32:52 437.432
GOMX 1 02 Apr 08:35:24 08:40:43 64° 80° (E) 08:45:38 467.674
SEEDS 02 Apr 08:40:29 08:44:32 43° 82° (E) 08:48:34 437.485
HO-68 02 Apr 08:42:17 08:49:24 60° 78° (ENE) 08:56:28 435.675
CINEMA 3 02 Apr 08:51:13 08:55:16 29° 85° (E) 08:59:11 145.822/145.860
COMPASS 1 02 Apr 08:56:25 09:00:34 55° 81° (E) 09:04:40 437.405
AIST 2 02 Apr 09:06:10 09:10:05 49° 64° (ENE) 09:14:01 435.215
BEESAT 2 02 Apr 09:07:46 09:11:35 45° 237° (WSW) 09:15:25 435.950
DX 1 02 Apr 09:13:08 09:14:14 11° 90° (E) 09:15:38 434.975-435.025
DELFI C3 02 Apr 09:15:12 09:18:34 25° 85° (E) 09:21:58 145.870
DUCHIFAT 1 02 Apr 09:17:33 09:19:10 12° 113° (ESE) 09:21:02 145.980
QB50P1 02 Apr 09:18:00 09:19:49 13° 113° (ESE) 09:21:52 145.935-145.965
Oscar 11 02 Apr 09:22:41 09:26:50 42° 82° (E) 09:30:57 145.826/435.025
UNISAT 6 02 Apr 09:28:25 09:32:43 36° 107° (ESE) 09:37:04 437.425
PHONESAT 2.4 02 Apr 09:30:19 09:33:50 46° 331° (NNW) 09:37:18 2401.200-2431.200
QB50P2 02 Apr 09:33:01 09:36:05 20° 110° (ESE) 09:39:18 145.880/145.840
TIGRISAT 02 Apr 09:36:27 09:40:55 43° 106° (ESE) 09:45:25 435.000
BUGSAT 1 02 Apr 09:38:00 09:40:16 15° 112° (ESE) 09:42:46 437.445
CANX-2 02 Apr 09:40:26 09:44:01 26° 252° (WSW) 09:47:29 2200.000
BEESAT 3 02 Apr 09:41:07 09:43:52 18° 230° (SW) 09:46:32 437.485
FUNcube-1 02 Apr 09:42:01 09:45:59 34° 83° (E) 09:49:52 145.935
DOVE 4 02 Apr 09:42:22 09:47:06 38° 252° (WSW) 09:51:28 437.250
BRITE-PL 02 Apr 09:49:23 09:53:10 18° 246° (WSW) 09:56:37 437.365/2234.400
VERMONT LUNAR 02 Apr 09:53:56 09:55:10 11° 322° (NW) 09:56:17 437.305
